Wind_Speed
12 13 13 12 13 14 14 15 19 22 24 26 28 30 31 32 33 33 33 35 36 35 35 35 35 35 35 35 34 34 33 32 30 29 28 27 27 26 24 23 22 21 19 18 17 16 15 14 13 14 15 13 11 10 10 10 9 8 8 8 7 7 7
12 12 12 13 13 14 15 17 20 23 24 27 29 30 31 32 32 34 34 35 37 37 36 36 36 36 35 35 35 34 33 32 31 30 29 28 27 26 24 23 22 20 19 18 17 16 15 14 14 15 15 13 11 12 11 11 10 9 9 9 8 8 8
12 12 13 14 14 15 15 16 19 23 26 27 28 30 32 34 36 38 37 36 37 37 35 36 37 37 36 35 35 34 34 33 32 31 30 29 28 26 24 22 21 19 18 18 17 16 15 15 15 16 15 13 12 12 12 12 11 10 10 10 9 9 9
13 15 15 15 15 15 14 14 19 24 27 30 32 34 36 38 39 38 37 37 36 36 37 38 38 37 36 36 35 35 36 35 34 32 30 29 28 25 23 22 20 19 18 17 17 16 15 15 16 16 15 14 13 12 13 13 13 11 11 11 11 11 11
14 15 13 13 14 13 12 14 19 24 27 30 33 34 36 38 36 35 35 35 36 37 38 37 35 36 36 36 36 36 37 36 34 32 30 28 27 25 24 22 20 19 17 16 16 15 15 16 16 16 15 14 13 13 14 14 13 13 12 12 13 12 12
12 13 13 13 13 13 14 16 20 26 29 31 34 36 36 35 34 35 36 35 35 35 35 34 34 36 37 37 36 36 36 36 34 32 29 27 26 25 23 21 20 18 17 16 16 16 16 17 17 16 15 14 13 13 13 13 13 12 12 13 13 12 12
12 13 13 13 13 14 15 15 20 26 30 31 32 32 30 31 33 35 35 34 35 34 34 35 37 38 37 35 35 35 36 35 34 32 29 27 25 24 22 21 19 18 17 17 17 17 18 18 17 16 15 15 14 13 13 13 13 12 12 13 13 13 13
13 13 14 14 14 14 14 13 17 23 26 26 26 26 28 30 32 33 34 36 37 36 36 38 39 38 36 35 36 37 37 36 34 32 29 27 25 23 21 20 19 17 18 18 18 18 19 18 17 17 17 17 16 15 14 14 14 14 14 14 15 15 15
11 12 13 14 14 13 12 12 16 21 23 24 26 28 30 31 32 34 36 38 36 35 38 39 38 37 35 35 36 37 37 35 34 32 30 28 26 22 20 20 19 18 19 19 18 19 18 17 18 18 18 18 18 17 16 17 17 16 16 17 17 18 18
10 11 12 12 12 11 9 10 13 16 18 22 25 27 29 31 32 34 34 34 34 36 38 38 35 34 34 35 35 35 36 34 33 33 32 31 27 23 21 21 20 19 21 20 19 19 18 17 18 19 19 20 19 19 19 19 19 19 18 19 19 19 19
9 11 11 10 10 9 9 10 12 12 15 21 24 26 29 30 31 31 32 32 34 35 36 35 33 33 33 33 33 33 33 34 36 36 33 30 26 22 22 23 22 21 21 21 20 18 17 18 19 20 21 22 21 20 20 21 21 21 20 19 18 17 16
10 10 10 10 10 9 10 11 11 12 15 20 23 25 27 28 29 30 31 33 34 34 33 32 31 31 32 32 31 33 35 35 32 27 23 22 21 20 22 24 23 22 21 21 20 19 18 19 20 21 23 23 22 22 22 22 22 21 20 18 15 14 13
8 7 8 9 8 8 9 10 11 12 14 18 22 24 26 27 29 30 30 31 32 31 29 29 30 32 32 32 34 35 32 24 19 19 20 22 21 21 25 27 25 23 22 21 20 20 21 22 23 23 23 24 23 22 22 21 21 19 17 15 13 12 11
7 7 7 7 8 9 10 10 11 11 12 16 20 22 24 25 26 27 28 28 28 28 28 30 32 32 32 33 34 29 24 23 24 30 33 31 28 29 29 29 28 24 22 21 22 22 23 24 25 24 23 24 22 20 19 18 18 17 15 14 13 12 12
10 10 9 9 9 9 10 10 10 10 11 14 17 19 21 23 23 24 26 26 27 29 31 33 33 33 33 33 30 26 29 36 40 40 37 34 34 34 32 32 30 26 23 23 23 23 24 26 27 25 23 23 21 19 18 17 18 17 16 16 15 14 14
12 11 11 10 10 10 10 10 10 9 8 10 15 18 20 21 22 24 25 26 29 31 33 34 34 34 33 30 29 31 36 42 42 39 38 37 37 36 34 32 30 27 25 24 23 23 24 27 28 26 24 23 20 19 19 18 18 17 16 16 16 15 15
12 12 10 10 9 9 9 8 8 8 7 10 15 18 19 20 21 23 25 27 30 33 34 34 33 32 31 30 32 35 37 39 38 36 35 33 33 33 31 30 30 29 27 25 24 26 28 28 27 26 25 23 21 20 20 19 18 16 14 14 14 15 16
11 10 9 9 9 9 9 9 8 8 8 10 14 16 18 19 19 21 25 28 30 30 29 29 29 29 30 33 34 35 36 38 34 30 30 29 29 30 30 30 29 28 27 25 26 29 30 29 27 27 26 24 23 23 22 20 18 16 15 15 15 16 18
9 9 9 9 9 9 9 8 7 8 9 10 13 16 18 19 21 24 27 28 27 25 26 27 29 30 32 34 34 35 36 35 30 29 28 26 23 26 28 28 28 27 27 27 28 30 30 30 29 28 27 25 24 25 24 21 19 17 17 17 18 18 19
9 8 8 7 7 7 7 6 6 8 11 13 16 18 20 22 25 28 28 27 26 26 27 29 30 32 33 34 33 32 31 29 28 29 29 27 26 26 25 24 26 26 26 27 30 31 30 30 29 28 27 27 26 26 25 23 21 19 19 19 19 18 17
8 8 7 7 7 7 6 6 7 9 13 17 18 18 21 23 26 26 25 25 26 27 29 31 31 31 31 31 29 28 27 27 28 29 29 32 33 28 24 24 27 26 26 30 31 30 29 29 29 28 28 28 26 26 26 24 22 20 20 19 18 16 15
8 8 8 8 8 8 9 11 12 13 15 16 17 18 20 22 23 22 22 24 26 27 29 30 28 27 26 26 26 27 28 30 30 29 30 31 32 29 27 29 31 30 31 31 30 29 28 28 28 28 28 28 27 27 26 25 22 21 20 18 16 15 14
7 8 8 8 8 10 13 14 15 15 14 15 16 16 17 18 20 21 21 23 24 25 26 25 24 24 24 25 27 29 31 33 33 32 32 34 34 33 33 34 34 34 32 28 26 26 26 26 26 26 26 27 27 27 26 24 22 19 18 17 15 15 14
5 5 5 6 7 9 11 12 13 13 12 13 12 12 13 15 18 20 21 22 22 23 23 23 23 24 26 28 30 32 34 34 32 32 34 36 36 35 35 35 34 32 29 25 23 25 25 25 25 25 26 28 28 26 25 23 20 17 16 15 14 14 14
6 5 6 7 9 11 13 14 14 13 11 10 10 9 11 14 18 20 20 20 21 21 21 22 24 26 29 32 33 33 35 34 32 32 35 37 36 36 36 35 31 28 26 24 24 24 24 24 24 26 28 29 28 26 23 21 17 14 13 13 13 14 14
7 6 8 11 11 13 13 13 12 11 9 8 9 9 11 13 16 18 18 18 19 19 19 22 26 29 31 32 33 34 36 35 34 35 37 37 36 36 35 33 30 27 25 24 24 24 24 24 24 26 28 28 27 24 21 18 15 12 11 12 13 15 15
10 11 12 12 12 14 14 11 8 7 5 5 7 8 10 13 15 16 15 14 15 15 18 22 26 29 30 31 33 35 37 37 36 36 37 37 36 34 33 31 30 28 26 23 22 22 23 25 25 26 26 25 23 20 17 15 13 11 11 13 14 15 15
11 12 12 13 14 13 13 10 6 4 4 4 6 8 10 12 13 12 11 11 12 14 17 21 25 28 30 31 33 35 36 36 35 35 34 34 33 31 30 30 29 28 26 23 22 23 25 25 24 23 22 21 19 17 16 14 11 10 11 13 14 14 13
9 8 8 11 11 9 9 9 6 3 3 4 6 8 10 12 11 9 9 11 12 13 16 19 24 27 29 31 33 33 33 33 33 32 31 30 30 29 27 27 26 25 24 23 24 24 25 24 22 20 19 18 16 16 15 14 13 11 12 13 13 12 11
8 7 7 8 9 7 6 7 4 2 2 4 6 8 10 12 10 9 10 11 12 14 16 19 23 26 29 30 31 31 30 30 30 30 28 28 28 27 25 23 22 23 24 24 24 24 23 21 20 19 18 17 15 14 13 13 13 13 13 13 12 11 11
7 8 8 8 8 6 4 2 3 3 4 5 7 9 10 11 11 11 11 12 14 16 18 20 23 26 27 28 28 29 28 27 27 27 27 27 27 26 25 23 22 25 27 25 24 23 21 19 19 19 18 16 14 12 10 10 11 13 14 13 11 10 10
6 7 8 7 7 5 2 1 3 5 6 6 7 8 9 10 11 11 12 14 15 17 18 21 24 25 25 25 26 27 27 26 25 26 26 26 26 26 26 26 26 28 28 25 22 20 19 18 18 17 15 14 12 10 9 9 10 12 12 10 9 9 9
3 3 5 4 3 2 2 3 5 6 6 4 4 6 7 8 9 10 12 14 16 17 19 21 23 23 22 23 24 25 25 26 26 26 26 26 25 25 26 27 28 28 26 23 20 19 18 17 16 15 14 13 11 10 9 9 10 10 9 9 8 8 8
1 2 3 2 1 3 5 6 6 6 3 1 2 5 7 8 9 10 12 14 16 18 19 21 22 22 22 23 24 24 24 25 25 26 26 24 22 22 21 22 23 23 22 20 18 18 17 17 16 14 13 11 10 9 8 8 10 10 9 8 8 8 9
1 1 3 2 3 4 5 5 5 5 4 3 4 7 9 11 12 12 12 13 14 17 20 21 21 21 22 23 23 24 23 22 21 22 22 20 18 17 15 15 17 18 17 15 15 15 15 14 13 11 9 8 8 7 7 8 9 9 8 8 8 9 10
3 2 2 2 2 3 4 6 7 6 5 6 7 8 11 14 15 15 14 13 14 17 20 22 21 20 22 24 24 24 24 22 20 20 19 17 16 15 13 12 12 12 12 11 11 12 11 9 8 7 7 6 6 7 7 7 8 8 8 8 9 9 9
4 4 7 9 8 8 9 9 9 7 7 7 8 10 12 15 16 17 17 16 16 18 20 21 20 19 20 21 21 22 22 21 20 18 16 15 15 16 15 12 10 9 9 8 8 7 7 6 5 5 5 5 6 6 7 6 5 5 5 6 7 7 7
11 10 9 9 7 7 9 11 10 9 8 8 9 11 13 15 16 17 18 18 18 18 20 21 19 19 19 19 18 18 18 18 19 18 16 15 17 17 17 15 13 11 9 8 7 7 6 5 5 5 6 6 6 6 5 4 3 3 3 4 5 5 5
Wind_Direction
196 197 196 194 197 199 198 195 192 191 191 193 196 198 199 200 200 200 202 204 206 209 210 211 212 213 214 216 218 219 220 220 220 220 220 220 219 214 211 211 211 211 213 212 212 212 214 218 220 214 210 215 229 238 239 237 241 241 236 240 246 248 248
194 196 197 197 198 200 200 196 192 191 192 195 197 198 199 201 201 202 204 205 207 209 210 211 211 212 214 216 217 218 219 219 220 221 221 219 217 214 214 215 213 214 216 215 213 214 216 219 215 209 210 222 235 238 237 238 246 245 238 240 245 249 254
192 193 196 197 199 200 198 194 193 193 194 195 196 198 201 203 204 205 205 206 207 209 209 210 211 212 214 214 216 217 218 219 219 220 221 219 215 213 214 216 218 219 216 213 213 214 216 216 212 211 218 230 235 233 234 239 246 244 235 237 244 252 259
193 194 195 197 198 198 196 193 195 195 195 196 197 199 202 205 206 206 207 207 207 207 209 211 211 211 213 213 213 215 217 218 219 220 221 219 216 214 215 215 217 218 214 213 214 216 218 216 214 217 223 228 229 230 236 243 247 241 233 237 245 250 256
196 192 192 197 196 195 195 196 197 195 196 199 200 202 205 206 206 207 209 209 209 210 211 212 211 211 212 212 212 215 217 218 218 219 220 218 215 215 216 215 214 214 214 214 216 218 217 215 214 216 219 224 228 231 239 245 244 240 237 240 245 250 256
193 189 193 195 192 194 196 197 197 195 197 199 200 204 205 204 205 207 209 210 210 212 212 213 213 213 213 212 211 213 216 216 216 217 217 214 213 215 216 215 213 215 215 214 217 218 215 213 214 215 218 225 229 231 234 237 237 237 238 241 247 252 258
184 189 195 193 192 196 197 197 196 196 199 200 201 204 203 203 205 207 208 209 210 211 211 213 214 214 213 210 209 211 213 214 214 214 213 210 211 215 215 214 215 218 218 215 217 217 213 214 216 220 225 229 231 230 230 233 235 237 240 244 248 252 256
185 189 192 193 195 197 196 193 192 195 198 199 199 201 202 203 205 206 208 209 210 210 210 213 214 213 211 209 208 210 212 212 210 209 208 207 210 213 214 215 217 219 218 217 218 216 214 217 222 228 231 233 235 235 236 240 244 246 249 252 254 255 257
189 191 193 195 195 196 193 188 188 191 193 195 197 200 201 203 204 206 208 209 209 209 211 214 214 212 210 208 207 208 209 208 206 206 206 205 206 209 214 219 221 220 219 218 218 218 218 223 230 234 236 238 240 241 243 248 251 254 258 261 263 264 263
189 194 197 198 196 193 182 176 181 186 191 195 198 201 202 204 205 207 209 209 208 211 213 213 212 210 208 206 206 206 205 203 202 204 204 201 201 204 211 219 223 222 221 220 221 223 225 231 237 239 242 244 245 246 249 253 255 259 264 267 271 271 271
194 195 196 195 189 179 169 172 179 184 191 195 198 202 203 204 207 208 209 209 210 212 213 212 210 208 206 204 202 202 201 199 201 203 202 199 199 203 210 217 222 223 221 222 224 226 230 235 238 242 246 247 248 251 253 257 260 263 266 269 271 271 271
199 195 193 189 180 175 174 176 182 187 193 197 199 203 204 205 206 208 210 211 211 213 212 210 208 205 203 200 198 199 200 198 196 192 190 192 194 204 217 220 222 223 222 223 226 228 232 237 239 242 247 249 251 254 257 261 263 265 266 265 262 260 263
198 194 190 183 173 172 173 176 186 191 194 198 201 204 205 205 207 207 209 211 212 212 210 206 204 203 201 198 198 200 194 182 171 170 184 195 196 205 221 225 224 224 223 225 228 229 232 236 236 237 244 250 253 257 260 262 261 260 260 255 250 254 262
183 191 188 176 171 176 178 183 190 191 194 198 201 204 206 208 209 209 210 211 210 208 207 205 203 201 198 197 199 192 171 163 180 193 197 198 196 202 215 223 224 224 224 226 229 230 233 235 233 234 242 252 256 259 260 257 254 255 255 251 251 260 269
185 194 190 181 182 184 184 188 191 191 196 196 196 201 205 207 209 209 210 210 208 206 206 204 201 198 197 196 191 177 171 183 196 199 197 194 195 201 212 220 221 221 223 226 229 232 234 235 234 235 244 252 256 257 254 250 253 258 258 256 257 264 271
194 197 192 188 188 186 187 193 194 191 189 188 193 199 202 203 205 205 207 207 205 206 206 203 199 196 193 188 183 182 186 193 196 196 194 193 195 202 210 217 218 218 222 225 228 230 232 234 235 237 243 251 253 251 247 249 256 260 259 259 262 266 269
198 196 192 189 185 182 187 191 189 184 182 189 197 199 200 202 203 203 205 206 207 207 205 200 196 192 188 184 185 188 191 193 193 190 190 194 198 203 210 217 217 216 220 223 225 227 231 236 239 241 245 251 251 246 244 250 257 257 256 258 262 265 268
197 193 192 187 181 181 186 186 183 186 189 193 195 197 201 202 200 201 205 208 209 207 201 196 191 188 187 186 188 190 191 193 189 181 185 196 204 209 214 218 218 218 219 222 225 230 235 240 243 246 249 252 248 243 244 251 256 254 254 258 261 264 267
190 194 195 189 183 183 184 182 183 186 186 185 191 199 204 202 201 206 210 210 208 203 196 191 190 190 189 189 190 191 191 191 182 173 182 196 207 218 220 216 216 221 222 223 229 235 240 244 246 250 253 251 245 243 246 252 256 256 258 261 264 266 267
190 192 190 185 182 178 172 167 167 178 187 196 204 208 208 207 210 214 213 208 204 199 193 191 191 192 191 190 191 190 188 184 174 170 181 192 204 222 228 217 216 224 225 228 235 238 240 243 247 252 254 249 244 245 248 253 258 261 263 265 268 270 268
187 180 177 177 171 162 159 162 169 182 196 204 207 206 205 209 213 213 210 204 200 196 193 191 192 193 190 188 187 184 181 175 166 170 186 195 200 216 229 223 221 224 222 227 236 239 241 245 248 252 252 248 245 245 248 254 259 262 266 268 269 270 269
179 172 175 175 167 171 177 180 181 187 195 199 199 199 203 208 210 206 202 200 198 195 193 191 191 190 186 182 181 182 180 172 167 178 194 197 199 212 223 223 222 222 220 224 234 240 244 247 248 250 251 247 244 243 247 253 258 261 266 269 267 267 266
168 166 171 172 169 175 179 180 181 180 181 183 186 193 200 205 204 200 197 197 196 193 190 187 186 185 181 178 179 181 179 174 173 183 194 197 200 209 215 217 218 219 219 224 232 237 242 245 247 250 250 246 243 242 245 251 256 260 266 267 264 262 262
130 135 151 160 153 145 145 152 157 156 156 159 167 184 196 199 199 195 193 193 192 189 185 183 183 181 179 181 182 179 176 175 177 186 195 199 203 208 212 216 217 218 220 226 235 239 243 247 250 251 249 245 242 241 244 250 255 258 263 264 262 260 258
81 82 91 99 106 114 121 128 130 127 129 137 151 175 190 194 195 192 191 194 191 185 181 181 183 183 183 185 184 178 176 177 183 192 197 201 205 209 212 216 220 222 225 231 240 246 249 251 251 251 248 244 241 241 243 247 251 255 261 265 263 259 258
79 72 70 70 82 101 108 109 110 112 124 143 158 175 186 190 193 194 196 195 189 184 183 183 186 188 188 186 183 180 181 186 192 196 198 200 206 209 211 214 220 224 229 236 243 249 253 253 250 248 246 242 240 240 241 243 246 251 259 261 259 259 261
77 72 72 72 80 90 90 85 87 103 129 154 162 173 185 190 195 199 199 193 186 186 188 188 189 190 188 185 183 184 187 192 197 199 199 201 206 209 211 215 221 225 230 240 250 255 254 251 246 244 243 241 240 237 234 236 244 250 254 256 255 258 263
69 68 70 72 76 85 90 89 89 104 131 162 172 182 193 195 196 199 194 185 185 188 189 189 189 189 188 186 186 189 192 196 200 202 201 202 206 209 212 217 222 227 233 244 254 255 250 244 240 238 237 237 234 230 229 238 251 252 250 253 256 259 263
56 58 59 65 71 83 99 102 103 120 147 172 184 192 200 197 190 187 185 183 186 187 186 188 191 191 189 187 188 192 194 196 200 203 204 205 208 210 214 218 224 230 237 245 249 246 240 235 231 229 228 228 225 226 236 250 260 258 254 256 258 259 259
46 43 42 55 65 72 88 99 108 135 177 197 199 198 201 196 184 178 184 185 185 185 185 189 193 193 190 188 189 191 193 195 200 204 205 206 209 212 216 221 228 238 245 247 242 235 229 226 222 219 218 219 222 229 241 250 254 254 255 257 257 256 255
60 56 45 39 43 44 51 99 152 190 200 203 202 200 200 197 187 183 185 184 183 186 187 189 193 194 190 188 189 191 193 195 198 201 202 203 207 211 214 219 231 244 247 242 232 225 220 216 214 213 214 218 225 233 238 241 242 244 248 252 252 252 255
45 54 53 38 28 23 3 199 190 206 206 196 196 201 200 199 197 195 190 184 184 188 190 191 194 193 190 189 190 192 193 193 193 195 198 201 205 209 213 219 229 238 237 229 221 217 214 211 211 212 215 222 230 233 235 237 237 237 241 244 247 253 259
25 45 57 43 18 346 276 232 216 222 220 197 196 207 204 203 208 207 196 187 187 190 191 192 193 191 188 188 190 190 190 191 191 192 195 200 204 209 216 223 228 228 224 219 214 211 209 210 211 212 216 222 227 228 230 233 233 234 236 240 247 256 260
209 96 76 67 243 235 236 235 233 241 254 272 238 229 220 213 212 208 198 191 191 193 193 193 193 190 188 187 187 188 190 192 192 192 194 198 203 208 214 220 222 220 219 217 215 212 211 212 214 217 222 222 219 216 218 225 232 238 242 245 252 258 258
295 75 109 159 196 212 231 251 275 288 290 282 256 237 227 219 211 203 195 191 193 197 197 197 195 191 189 189 189 191 194 196 195 194 193 192 192 194 199 206 210 211 212 214 215 215 217 220 224 227 227 221 214 212 213 223 237 244 247 248 252 254 254
319 6 41 21 333 307 295 292 297 295 278 263 252 237 229 224 215 206 199 196 200 204 204 201 197 192 191 192 192 196 200 201 200 199 195 189 185 183 183 188 196 200 201 204 208 211 215 222 227 227 221 215 214 215 218 231 245 246 242 242 245 247 251
352 8 11 4 352 334 316 299 286 278 266 255 247 238 234 231 223 214 212 213 214 215 211 204 197 193 194 194 192 193 194 195 195 192 188 185 186 185 179 170 163 168 180 186 189 193 197 203 208 207 204 205 209 211 215 226 237 233 229 235 241 249 261
19 16 6 356 345 323 307 297 287 279 269 257 249 244 241 238 232 227 225 225 225 223 217 208 200 194 193 192 186 182 184 189 190 185 180 181 184 183 179 168 152 142 144 152 160 164 164 166 175 187 194 198 204 208 208 207 208 215 232 248 258 270 280
Height
733 734 736 738 740 742 743 745 748 751 755 758 761 763 766 769 771 773 775 776 778 780 782 784 786 788 790 792 794 796 798 800 802 804 805 807 809 811 813 814 816 817 818 819 821 822 823 824 825 825 826 827 828 829 829 829 829 829 829 829 829 829 830
730 732 733 734 736 738 739 741 744 748 751 754 757 760 763 765 768 769 771 773 775 776 779 781 783 785 787 789 791 793 796 798 800 801 803 805 807 809 810 812 813 815 817 818 819 821 822 823 823 824 825 825 826 827 828 829 829 828 828 828 829 829 829
725 727 728 729 731 732 735 738 741 744 746 750 753 756 759 760 762 764 766 769 771 773 776 778 779 781 784 786 788 791 793 795 796 798 800 802 805 807 809 811 812 814 815 816 818 819 820 821 822 823 823 824 824 825 827 827 828 828 828 828 828 828 828
719 720 721 724 725 728 731 734 736 739 742 745 747 750 753 755 758 761 764 766 768 771 772 773 775 777 780 782 785 787 789 791 793 795 798 801 804 806 808 809 811 813 814 816 817 818 820 821 821 822 822 822 823 824 825 826 826 827 827 827 827 827 827
714 715 718 721 722 726 728 729 732 735 738 741 743 746 749 752 756 759 762 764 765 767 769 771 774 775 777 779 781 784 785 788 791 793 797 800 803 805 806 808 810 812 813 815 816 818 819 820 820 821 821 821 822 822 823 824 825 825 825 825 825 825 825
711 712 714 716 718 721 722 724 727 729 733 736 738 742 745 749 754 755 758 760 762 765 767 770 771 772 774 776 778 780 782 785 788 791 795 798 801 803 805 807 809 811 812 814 815 817 818 819 819 820 820 820 821 821 821 822 823 823 823 823 823 823 823
706 708 709 712 713 715 716 719 722 726 729 732 735 740 743 747 750 751 754 757 758 761 763 765 766 768 770 773 775 778 780 783 786 789 793 796 799 801 804 806 808 809 811 812 814 815 816 817 818 819 819 819 819 820 820 821 821 821 821 821 821 821 822
699 702 704 706 707 709 712 715 719 723 727 731 735 738 741 744 746 748 750 752 753 756 758 759 761 764 767 769 771 773 776 779 784 787 791 795 798 800 803 805 807 808 809 810 812 813 814 816 817 818 819 819 819 819 819 820 820 820 820 820 819 819 820
696 698 699 701 702 704 708 711 716 721 725 728 731 733 736 738 740 742 744 746 749 751 753 754 757 760 763 766 768 771 774 777 782 786 789 792 795 799 802 805 806 806 807 808 810 812 813 814 816 817 818 818 818 818 818 819 819 819 818 818 818 817 817
694 696 696 698 700 702 706 710 715 719 721 724 727 729 732 734 736 738 740 743 746 747 749 752 755 758 761 764 767 770 773 776 780 784 785 788 791 795 799 803 805 804 805 807 808 810 812 813 815 816 817 817 817 817 817 817 817 817 817 816 815 815 815
692 694 695 698 700 703 706 709 711 714 716 719 722 724 727 730 732 735 738 741 742 744 746 749 752 756 759 762 766 769 772 774 777 779 783 787 790 793 797 800 802 802 803 805 807 808 810 811 812 813 815 815 815 815 815 816 816 815 815 814 813 813 813
690 691 694 697 700 702 704 706 709 711 713 716 718 721 724 726 729 732 735 737 739 741 744 747 751 754 757 761 764 766 768 771 776 782 789 793 793 794 797 798 799 800 801 803 805 806 807 808 808 810 811 812 813 813 813 813 814 813 813 812 812 811 811
688 690 693 695 699 701 703 705 707 708 711 713 715 718 721 723 726 729 731 733 736 739 742 746 749 751 755 758 760 762 768 776 782 785 788 789 789 791 795 797 797 798 799 801 802 803 804 804 805 805 807 809 809 809 810 811 811 811 810 810 810 809 809
689 691 693 695 698 700 702 704 705 707 709 711 714 716 719 721 724 727 729 732 735 738 740 742 745 748 752 754 757 763 769 774 776 774 774 776 780 783 787 791 793 794 796 798 799 800 800 800 801 802 804 805 806 806 807 808 808 808 808 808 808 808 807
687 689 692 694 696 698 700 702 703 705 707 709 712 715 717 720 723 725 728 730 732 734 736 738 741 745 748 751 756 760 761 760 760 761 764 769 774 777 780 783 787 790 793 795 796 796 797 797 798 799 801 802 802 803 804 804 805 805 805 805 805 805 805
685 686 688 691 693 695 697 699 700 702 705 708 710 712 714 717 720 722 725 726 729 730 732 734 737 740 744 749 752 753 752 753 754 757 760 764 768 772 775 779 783 786 789 792 793 794 794 795 796 797 798 799 799 800 801 802 802 803 803 803 803 803 803
682 683 685 687 690 693 695 697 699 702 704 706 707 709 712 715 717 720 722 723 725 726 728 731 734 738 742 745 747 747 749 752 754 758 764 767 770 772 775 778 781 783 787 790 791 791 791 792 794 795 796 797 797 798 799 799 800 800 800 801 801 801 801
681 683 684 686 688 691 693 695 697 699 701 703 705 708 710 712 715 717 718 720 722 724 728 731 734 738 740 741 743 745 747 751 754 760 768 772 775 778 779 779 781 783 786 788 789 789 789 789 792 793 794 795 795 796 797 797 798 798 799 799 799 799 799
680 681 682 684 686 688 690 692 694 696 698 701 703 705 708 710 713 714 715 717 721 724 727 731 733 736 737 738 741 743 746 751 755 760 768 774 780 783 781 779 781 783 785 787 788 789 789 788 789 791 792 793 793 794 795 796 796 797 797 797 797 797 797
678 679 680 683 684 686 689 690 692 695 696 699 701 702 705 707 708 709 711 715 718 721 725 728 730 732 734 737 740 743 748 752 755 760 766 770 774 780 780 779 780 782 785 786 787 786 786 786 787 788 790 791 791 792 793 794 795 795 795 795 795 795 794
675 677 680 682 683 686 688 689 690 692 693 695 697 699 702 703 704 707 710 713 716 718 721 724 727 730 733 736 740 744 748 750 753 759 764 765 767 773 777 778 778 779 781 782 782 782 783 784 785 786 787 788 789 790 790 791 792 793 793 793 792 792 791
672 675 677 679 681 683 684 685 687 688 690 692 695 697 699 701 703 706 709 711 714 716 719 722 726 729 734 738 741 743 745 747 750 756 761 763 764 766 769 771 773 774 775 777 778 779 781 781 782 783 784 785 786 786 787 788 789 790 790 790 790 789 789
670 672 674 676 678 679 681 683 684 686 689 691 693 695 697 700 702 705 707 710 712 715 718 722 726 729 733 736 738 739 741 744 747 751 755 758 759 760 761 764 767 770 772 774 775 776 778 778 779 781 782 782 783 783 784 785 786 787 787 787 787 786 786
670 672 674 675 678 679 681 684 685 687 689 690 692 695 697 700 702 704 706 708 710 714 718 721 724 727 730 732 734 736 738 742 745 747 751 754 755 756 757 760 764 766 769 771 773 774 775 776 777 778 779 779 780 780 781 782 783 784 785 785 784 784 784
673 675 676 677 678 680 683 685 686 687 688 690 693 696 698 700 701 703 705 707 709 713 716 719 721 723 725 728 730 733 736 739 742 744 747 750 751 752 755 758 762 764 766 769 770 771 772 773 774 775 776 776 777 777 778 779 780 781 782 782 782 782 782
675 676 677 678 679 681 683 684 686 687 689 692 694 696 698 700 701 702 704 706 709 712 715 717 718 720 723 726 729 732 734 736 738 740 743 746 749 751 754 757 759 762 764 766 768 768 769 770 770 771 772 773 774 774 776 777 778 779 779 779 780 780 779
675 676 677 680 681 682 683 686 688 690 692 693 695 696 699 700 701 703 704 707 710 712 713 715 717 719 722 725 728 730 732 733 735 737 740 744 747 750 753 755 757 760 762 764 765 766 766 766 767 768 769 771 771 772 773 775 776 776 776 777 777 777 777
677 678 680 681 681 682 684 687 691 693 694 695 696 697 699 700 702 703 705 708 710 711 713 715 717 719 721 724 726 728 730 731 733 736 739 743 746 749 751 753 755 757 759 761 762 763 763 764 765 767 768 769 769 770 771 772 772 773 774 774 775 775 775
682 683 684 683 684 685 686 689 692 694 695 695 696 698 699 701 702 704 706 708 709 711 713 714 716 718 720 722 724 726 728 730 732 735 738 741 744 747 749 751 754 756 757 759 759 761 761 762 763 765 766 766 767 768 769 769 769 770 771 772 772 772 772
687 688 687 688 689 689 689 691 693 695 696 696 697 698 700 701 703 704 705 707 709 711 712 714 715 717 718 720 722 724 727 729 731 734 737 740 742 745 748 751 753 755 756 756 757 759 760 760 761 762 763 764 765 765 766 767 767 768 769 769 770 770 770
688 689 690 691 692 692 692 694 695 696 696 697 698 699 700 701 702 703 704 706 708 710 711 713 714 715 717 719 722 724 726 728 731 733 735 738 740 742 746 749 752 753 754 755 755 756 757 758 759 760 761 762 762 763 764 765 766 767 767 767 768 768 768
689 689 690 692 694 695 697 697 697 697 697 698 699 699 700 701 701 702 704 706 708 709 710 712 713 714 716 719 720 723 725 727 730 732 734 736 737 740 742 745 747 750 751 752 753 754 755 756 757 758 758 759 760 761 762 763 764 764 765 766 766 766 766
690 689 689 692 694 697 699 700 699 698 697 697 699 699 700 701 701 702 704 705 707 709 710 711 712 713 715 717 719 722 724 726 729 731 732 734 736 738 740 742 744 747 749 750 751 751 752 754 754 755 756 757 758 759 760 761 761 762 763 764 764 764 765
691 691 691 693 694 697 699 700 699 697 696 696 698 699 700 701 701 702 704 705 707 708 709 710 711 713 714 716 718 721 723 725 727 729 731 733 735 737 740 742 744 746 746 747 747 748 750 751 752 753 754 755 756 757 757 758 759 760 761 762 762 763 764
691 691 692 693 694 696 697 697 697 696 696 697 698 699 700 701 701 703 704 705 706 707 708 710 711 712 713 715 717 720 722 724 726 728 729 731 733 735 738 741 742 743 743 743 745 746 747 749 750 751 752 753 754 755 756 757 757 758 760 761 762 763 764
692 691 691 692 693 693 694 695 696 697 698 698 698 699 700 700 701 702 704 705 706 706 707 708 709 711 712 713 714 717 720 722 724 726 727 729 730 733 736 739 740 740 740 742 743 745 746 748 749 750 751 751 752 753 754 756 757 758 759 760 761 762 762
694 692 691 691 692 694 695 696 697 697 698 698 698 699 699 699 700 701 703 704 705 705 706 707 708 709 710 711 713 715 718 721 723 724 725 727 729 731 734 736 737 738 740 742 743 744 745 746 748 749 750 751 752 753 754 755 756 757 758 759 760 761 761
693 691 691 692 693 695 696 696 697 697 698 698 699 699 699 700 700 701 702 703 704 704 705 706 707 708 709 710 713 715 717 720 722 722 723 725 727 730 732 733 735 737 740 741 742 743 744 745 747 749 750 751 752 753 754 755 755 756 758 758 758 759 759